Year,Month,Day,Hour,Minute,Value (Times are PST for temperature in C)
2016,10,12,00,00,4.90
2016,10,12,00,01,4.90
2016,10,12,00,02,4.90
2016,10,12,00,03,4.90
2016,10,12,00,04,4.90
2016,10,12,00,05,4.80
2016,10,12,00,06,4.80
2016,10,12,00,07,4.80
2016,10,12,00,08,4.90
2016,10,12,00,09,4.90
2016,10,12,00,10,4.90
2016,10,12,00,11,4.90
2016,10,12,00,12,4.80
2016,10,12,00,13,4.80
2016,10,12,00,14,4.80
2016,10,12,00,15,4.80
2016,10,12,00,16,4.80
2016,10,12,00,17,4.80
2016,10,12,00,18,4.80
2016,10,12,00,19,4.80
2016,10,12,00,20,4.80
2016,10,12,00,21,4.80
2016,10,12,00,22,4.80
2016,10,12,00,23,4.80
2016,10,12,00,24,4.80
2016,10,12,00,25,4.80
2016,10,12,00,26,4.80
2016,10,12,00,27,4.80
2016,10,12,00,28,4.80
2016,10,12,00,29,4.80
2016,10,12,00,30,4.80
2016,10,12,00,31,4.80
2016,10,12,00,32,4.80
2016,10,12,00,33,4.80
2016,10,12,00,34,4.80
2016,10,12,00,35,4.80
2016,10,12,00,36,4.80
2016,10,12,00,37,4.80
2016,10,12,00,38,4.80
2016,10,12,00,39,4.80
2016,10,12,00,40,4.80
2016,10,12,00,41,4.80
2016,10,12,00,42,4.80
2016,10,12,00,43,4.80
2016,10,12,00,44,4.80
2016,10,12,00,45,4.80
2016,10,12,00,46,4.80
2016,10,12,00,47,4.80
2016,10,12,00,48,4.70
2016,10,12,00,49,4.80
2016,10,12,00,50,4.80
2016,10,12,00,51,4.80
2016,10,12,00,52,4.80
2016,10,12,00,53,4.80
2016,10,12,00,54,4.80
2016,10,12,00,55,4.70
2016,10,12,00,56,4.70
2016,10,12,00,57,4.70
2016,10,12,00,58,4.70
2016,10,12,00,59,4.70
2016,10,12,01,00,4.70
2016,10,12,01,01,4.70
2016,10,12,01,02,4.70
2016,10,12,01,03,4.70
2016,10,12,01,04,4.70
2016,10,12,01,05,4.70
2016,10,12,01,06,4.70
2016,10,12,01,07,4.70
2016,10,12,01,08,4.70
2016,10,12,01,09,4.70
2016,10,12,01,10,4.70
2016,10,12,01,11,4.70
2016,10,12,01,12,4.70
2016,10,12,01,13,4.70
2016,10,12,01,14,4.70
2016,10,12,01,15,4.70
2016,10,12,01,16,4.70
2016,10,12,01,17,4.70
2016,10,12,01,18,4.70
2016,10,12,01,19,4.70
2016,10,12,01,20,4.70
2016,10,12,01,21,4.70
2016,10,12,01,22,4.70
2016,10,12,01,23,4.70
2016,10,12,01,24,4.70
2016,10,12,01,25,4.70
2016,10,12,01,26,4.60
2016,10,12,01,27,4.60
2016,10,12,01,28,4.60
2016,10,12,01,29,4.60
2016,10,12,01,30,4.60
2016,10,12,01,31,4.60
2016,10,12,01,32,4.60
2016,10,12,01,33,4.60
2016,10,12,01,34,4.60
2016,10,12,01,35,4.60
2016,10,12,01,36,4.60
2016,10,12,01,37,4.50
2016,10,12,01,38,4.50
2016,10,12,01,39,4.50
2016,10,12,01,40,4.50
2016,10,12,01,41,4.50
2016,10,12,01,42,4.50
2016,10,12,01,43,4.50
2016,10,12,01,44,4.50
2016,10,12,01,45,4.50
2016,10,12,01,46,4.40
2016,10,12,01,47,4.40
2016,10,12,01,48,4.40
2016,10,12,01,49,4.40
2016,10,12,01,50,4.40
2016,10,12,01,51,4.40
2016,10,12,01,52,4.30
2016,10,12,01,53,4.30
2016,10,12,01,54,4.30
2016,10,12,01,55,4.30
2016,10,12,01,56,4.30
2016,10,12,01,57,4.30
2016,10,12,01,58,4.30
2016,10,12,01,59,4.30
2016,10,12,02,00,4.30
2016,10,12,02,01,4.30
2016,10,12,02,02,4.30
2016,10,12,02,03,4.30
2016,10,12,02,04,4.30
2016,10,12,02,05,4.30
2016,10,12,02,06,4.30
2016,10,12,02,07,4.30
2016,10,12,02,08,4.30
2016,10,12,02,09,4.30
2016,10,12,02,10,4.30
2016,10,12,02,11,4.30
2016,10,12,02,12,4.30
2016,10,12,02,13,4.30
2016,10,12,02,14,4.30
2016,10,12,02,15,4.30
2016,10,12,02,16,4.30
2016,10,12,02,17,4.30
2016,10,12,02,18,4.30
2016,10,12,02,19,4.30
2016,10,12,02,20,4.30
2016,10,12,02,21,4.40
2016,10,12,02,22,4.40
2016,10,12,02,23,4.40
2016,10,12,02,24,4.40
2016,10,12,02,25,4.40
2016,10,12,02,26,4.40
2016,10,12,02,27,4.40
2016,10,12,02,28,4.40
2016,10,12,02,29,4.40
2016,10,12,02,30,4.40
2016,10,12,02,31,4.40
2016,10,12,02,32,4.40
2016,10,12,02,33,4.40
2016,10,12,02,34,4.40
2016,10,12,02,35,4.40
2016,10,12,02,36,4.40
2016,10,12,02,37,4.40
2016,10,12,02,38,4.40
2016,10,12,02,39,4.40
2016,10,12,02,40,4.40
2016,10,12,02,41,4.40
2016,10,12,02,42,4.30
2016,10,12,02,43,4.30
2016,10,12,02,44,4.30
2016,10,12,02,45,4.30
2016,10,12,02,46,4.30
2016,10,12,02,47,4.30
2016,10,12,02,48,4.30
2016,10,12,02,49,4.30
2016,10,12,02,50,4.30
2016,10,12,02,51,4.30
2016,10,12,02,52,4.30
2016,10,12,02,53,4.30
2016,10,12,02,54,4.30
2016,10,12,02,55,4.30
2016,10,12,02,56,4.20
2016,10,12,02,57,4.20
2016,10,12,02,58,4.20
2016,10,12,02,59,4.20
2016,10,12,03,00,4.20
2016,10,12,03,01,4.20
2016,10,12,03,02,4.20
2016,10,12,03,03,4.20
2016,10,12,03,04,4.20
2016,10,12,03,05,4.20
2016,10,12,03,06,4.20
2016,10,12,03,07,4.20
2016,10,12,03,08,4.20
2016,10,12,03,09,4.20
2016,10,12,03,10,4.20
2016,10,12,03,11,4.10
2016,10,12,03,12,4.10
2016,10,12,03,13,4.10
2016,10,12,03,14,4.10
2016,10,12,03,15,4.10
2016,10,12,03,16,4.10
2016,10,12,03,17,4.10
2016,10,12,03,18,4.10
2016,10,12,03,19,4.10
2016,10,12,03,20,4.10
2016,10,12,03,21,4.10
2016,10,12,03,22,4.10
2016,10,12,03,23,4.10
2016,10,12,03,24,4.10
2016,10,12,03,25,4.10
2016,10,12,03,26,4.10
2016,10,12,03,27,4.10
2016,10,12,03,28,4.20
2016,10,12,03,29,4.20
2016,10,12,03,30,4.20
2016,10,12,03,31,4.10
2016,10,12,03,32,4.10
2016,10,12,03,33,4.10
2016,10,12,03,34,4.10
2016,10,12,03,35,4.10
2016,10,12,03,36,4.10
2016,10,12,03,37,4.10
2016,10,12,03,38,4.10
2016,10,12,03,39,4.10
2016,10,12,03,40,4.10
2016,10,12,03,41,4.10
2016,10,12,03,42,4.10
2016,10,12,03,43,4.10
2016,10,12,03,44,4.10
2016,10,12,03,45,4.10
2016,10,12,03,46,4.10
2016,10,12,03,47,4.10
2016,10,12,03,48,4.10
2016,10,12,03,49,4.10
2016,10,12,03,50,4.10
2016,10,12,03,51,4.10
2016,10,12,03,52,4.10
2016,10,12,03,53,4.10
2016,10,12,03,54,4.10
2016,10,12,03,55,4.10
2016,10,12,03,56,4.10
2016,10,12,03,57,4.10
2016,10,12,03,58,4.10
2016,10,12,03,59,4.10
2016,10,12,04,00,4.10
2016,10,12,04,01,4.10
2016,10,12,04,02,4.10
2016,10,12,04,03,4.10
2016,10,12,04,04,4.10
2016,10,12,04,05,4.10
2016,10,12,04,06,4.10
2016,10,12,04,07,4.10
2016,10,12,04,08,4.20
2016,10,12,04,09,4.20
2016,10,12,04,10,4.20
2016,10,12,04,11,4.20
2016,10,12,04,12,4.20
2016,10,12,04,13,4.20
2016,10,12,04,14,4.20
2016,10,12,04,15,4.20
2016,10,12,04,16,4.20
2016,10,12,04,17,4.20
2016,10,12,04,18,4.20
2016,10,12,04,19,4.20
2016,10,12,04,20,4.20
2016,10,12,04,21,4.20
2016,10,12,04,22,4.20
2016,10,12,04,23,4.20
2016,10,12,04,24,4.20
2016,10,12,04,25,4.20
2016,10,12,04,26,4.20
2016,10,12,04,27,4.10
2016,10,12,04,28,4.10
2016,10,12,04,29,4.10
2016,10,12,04,30,4.10
2016,10,12,04,31,4.10
2016,10,12,04,32,4.10
2016,10,12,04,33,4.10
2016,10,12,04,34,4.10
2016,10,12,04,35,4.10
2016,10,12,04,36,4.00
2016,10,12,04,37,4.10
2016,10,12,04,38,4.00
2016,10,12,04,39,4.00
2016,10,12,04,40,4.00
2016,10,12,04,41,4.00
2016,10,12,04,42,3.90
2016,10,12,04,43,3.90
2016,10,12,04,44,4.00
2016,10,12,04,45,4.00
2016,10,12,04,46,4.00
2016,10,12,04,47,4.00
2016,10,12,04,48,4.00
2016,10,12,04,49,4.00
2016,10,12,04,50,3.90
2016,10,12,04,51,3.90
2016,10,12,04,52,3.90
2016,10,12,04,53,4.00
2016,10,12,04,54,4.00
2016,10,12,04,55,3.90
2016,10,12,04,56,3.90
2016,10,12,04,57,3.90
2016,10,12,04,58,3.90
2016,10,12,04,59,3.90
2016,10,12,05,00,3.90
2016,10,12,05,01,3.90
2016,10,12,05,02,3.90
2016,10,12,05,03,3.90
2016,10,12,05,04,3.90
2016,10,12,05,05,3.90
2016,10,12,05,06,3.90
2016,10,12,05,07,3.90
2016,10,12,05,08,3.90
2016,10,12,05,09,3.90
2016,10,12,05,10,3.90
2016,10,12,05,11,3.90
2016,10,12,05,12,3.90
2016,10,12,05,13,3.90
2016,10,12,05,14,3.90
2016,10,12,05,15,3.90
2016,10,12,05,16,3.90
2016,10,12,05,17,3.90
2016,10,12,05,18,3.90
2016,10,12,05,19,3.90
2016,10,12,05,20,3.90
2016,10,12,05,21,3.90
2016,10,12,05,22,3.90
2016,10,12,05,23,3.80
2016,10,12,05,24,3.80
2016,10,12,05,25,3.80
2016,10,12,05,26,3.80
2016,10,12,05,27,3.80
2016,10,12,05,28,3.80
2016,10,12,05,29,3.90
2016,10,12,05,30,3.90
2016,10,12,05,31,3.90
2016,10,12,05,32,3.90
2016,10,12,05,33,3.90
2016,10,12,05,34,3.90
2016,10,12,05,35,3.90
2016,10,12,05,36,3.90
2016,10,12,05,37,3.90
2016,10,12,05,38,3.90
2016,10,12,05,39,3.90
2016,10,12,05,40,3.90
2016,10,12,05,41,3.80
2016,10,12,05,42,3.80
2016,10,12,05,43,3.80
2016,10,12,05,44,3.80
2016,10,12,05,45,3.80
2016,10,12,05,46,3.80
2016,10,12,05,47,3.90
2016,10,12,05,48,3.90
2016,10,12,05,49,3.90
2016,10,12,05,50,3.90
2016,10,12,05,51,3.80
2016,10,12,05,52,3.80
2016,10,12,05,53,3.80
2016,10,12,05,54,3.80
2016,10,12,05,55,3.80
2016,10,12,05,56,3.80
2016,10,12,05,57,3.80
2016,10,12,05,58,3.80
2016,10,12,05,59,3.80
2016,10,12,06,00,3.80
2016,10,12,06,01,3.80
2016,10,12,06,02,3.80
2016,10,12,06,03,3.80
2016,10,12,06,04,3.70
2016,10,12,06,05,3.70
2016,10,12,06,06,3.70
2016,10,12,06,07,3.70
2016,10,12,06,08,3.80
2016,10,12,06,09,3.80
2016,10,12,06,10,3.80
2016,10,12,06,11,3.80
2016,10,12,06,12,3.80
2016,10,12,06,13,3.80
2016,10,12,06,14,3.80
2016,10,12,06,15,3.80
2016,10,12,06,16,3.80
2016,10,12,06,17,3.70
2016,10,12,06,18,3.70
2016,10,12,06,19,3.70
2016,10,12,06,20,3.70
2016,10,12,06,21,3.70
2016,10,12,06,22,3.70
2016,10,12,06,23,3.70
2016,10,12,06,24,3.70
2016,10,12,06,25,3.70
2016,10,12,06,26,3.70
2016,10,12,06,27,3.70
2016,10,12,06,28,3.70
2016,10,12,06,29,3.70
2016,10,12,06,30,3.70
2016,10,12,06,31,3.70
2016,10,12,06,32,3.70
2016,10,12,06,33,3.70
2016,10,12,06,34,3.70
2016,10,12,06,35,3.80
2016,10,12,06,36,3.80
2016,10,12,06,37,3.80
2016,10,12,06,38,3.80
2016,10,12,06,39,3.80
2016,10,12,06,40,3.80
2016,10,12,06,41,3.70
2016,10,12,06,42,3.70
2016,10,12,06,43,3.70
2016,10,12,06,44,3.70
2016,10,12,06,45,3.70
2016,10,12,06,46,3.70
2016,10,12,06,47,3.70
2016,10,12,06,48,3.70
2016,10,12,06,49,3.70
2016,10,12,06,50,3.70
2016,10,12,06,51,3.70
2016,10,12,06,52,3.70
2016,10,12,06,53,3.70
2016,10,12,06,54,3.70
2016,10,12,06,55,3.70
2016,10,12,06,56,3.70
2016,10,12,06,57,3.70
2016,10,12,06,58,3.70
2016,10,12,06,59,3.70
2016,10,12,07,00,3.70
2016,10,12,07,01,3.70
2016,10,12,07,02,3.70
2016,10,12,07,03,3.70
2016,10,12,07,04,3.70
2016,10,12,07,05,3.70
2016,10,12,07,06,3.70
2016,10,12,07,07,3.70
2016,10,12,07,08,3.70
2016,10,12,07,09,3.70
2016,10,12,07,10,3.70
2016,10,12,07,11,3.70
2016,10,12,07,12,3.70
2016,10,12,07,13,3.70
2016,10,12,07,14,3.70
2016,10,12,07,15,3.70
2016,10,12,07,16,3.70
2016,10,12,07,17,3.70
2016,10,12,07,18,3.70
2016,10,12,07,19,3.70
2016,10,12,07,20,3.70
2016,10,12,07,21,3.70
2016,10,12,07,22,3.70
2016,10,12,07,23,3.70
2016,10,12,07,24,3.70
2016,10,12,07,25,3.70
2016,10,12,07,26,3.70
2016,10,12,07,27,3.70
2016,10,12,07,28,3.70
2016,10,12,07,29,3.70
2016,10,12,07,30,3.70
2016,10,12,07,31,3.70
2016,10,12,07,32,3.70
2016,10,12,07,33,3.80
2016,10,12,07,34,3.70
2016,10,12,07,35,3.70
2016,10,12,07,36,3.70
2016,10,12,07,37,3.70
2016,10,12,07,38,3.70
2016,10,12,07,39,3.80
2016,10,12,07,40,3.80
2016,10,12,07,41,3.80
2016,10,12,07,42,3.80
2016,10,12,07,43,3.90
2016,10,12,07,44,3.90
2016,10,12,07,45,3.90
2016,10,12,07,46,3.90
2016,10,12,07,47,3.90
2016,10,12,07,48,3.90
2016,10,12,07,49,3.90
2016,10,12,07,50,3.90
2016,10,12,07,51,3.90
2016,10,12,07,52,3.90
2016,10,12,07,53,3.90
2016,10,12,07,54,3.90
2016,10,12,07,55,3.90
2016,10,12,07,56,3.90
2016,10,12,07,57,3.90
2016,10,12,07,58,3.90
2016,10,12,07,59,4.00
2016,10,12,08,00,4.00
2016,10,12,08,01,4.00
2016,10,12,08,02,4.10
2016,10,12,08,03,4.10
2016,10,12,08,04,4.20
2016,10,12,08,05,4.20
2016,10,12,08,06,4.30
2016,10,12,08,07,4.30
2016,10,12,08,08,4.30
2016,10,12,08,09,4.30
2016,10,12,08,10,4.40
2016,10,12,08,11,4.40
2016,10,12,08,12,4.40
2016,10,12,08,13,4.40
2016,10,12,08,14,4.40
2016,10,12,08,15,4.40
2016,10,12,08,16,4.40
2016,10,12,08,17,4.40
2016,10,12,08,18,4.40
2016,10,12,08,19,4.40
2016,10,12,08,20,4.40
2016,10,12,08,21,4.50
2016,10,12,08,22,4.50
2016,10,12,08,23,4.60
2016,10,12,08,24,4.60
2016,10,12,08,25,4.70
2016,10,12,08,26,4.80
2016,10,12,08,27,4.80
2016,10,12,08,28,4.80
2016,10,12,08,29,4.90
2016,10,12,08,30,4.90
2016,10,12,08,31,5.00
2016,10,12,08,32,5.10
2016,10,12,08,33,5.20
2016,10,12,08,34,5.30
2016,10,12,08,35,5.30
2016,10,12,08,36,5.30
2016,10,12,08,37,5.30
2016,10,12,08,38,5.40
2016,10,12,08,39,5.50
2016,10,12,08,40,5.60
2016,10,12,08,41,5.60
2016,10,12,08,42,5.70
2016,10,12,08,43,5.80
2016,10,12,08,44,5.80
2016,10,12,08,45,5.80
2016,10,12,08,46,5.90
2016,10,12,08,47,5.90
2016,10,12,08,48,6.00
2016,10,12,08,49,6.00
2016,10,12,08,50,6.10
2016,10,12,08,51,6.10
2016,10,12,08,52,6.10
2016,10,12,08,53,6.10
2016,10,12,08,54,6.10
2016,10,12,08,55,6.10
2016,10,12,08,56,6.10
2016,10,12,08,57,6.20
2016,10,12,08,58,6.20
2016,10,12,08,59,6.20
2016,10,12,09,00,6.20
2016,10,12,09,01,6.20
2016,10,12,09,02,6.20
2016,10,12,09,03,6.20
2016,10,12,09,04,6.20
2016,10,12,09,05,6.20
2016,10,12,09,06,6.20
2016,10,12,09,07,6.10
2016,10,12,09,08,6.20
2016,10,12,09,09,6.20
2016,10,12,09,10,6.20
2016,10,12,09,11,6.20
2016,10,12,09,12,6.20
2016,10,12,09,13,6.30
2016,10,12,09,14,6.30
2016,10,12,09,15,6.30
2016,10,12,09,16,6.40
2016,10,12,09,17,6.40
2016,10,12,09,18,6.50
2016,10,12,09,19,6.60
2016,10,12,09,20,6.60
2016,10,12,09,21,6.70
2016,10,12,09,22,6.70
2016,10,12,09,23,6.70
2016,10,12,09,24,6.80
2016,10,12,09,25,6.80
2016,10,12,09,26,6.80
2016,10,12,09,27,6.90
2016,10,12,09,28,6.90
2016,10,12,09,29,7.00
2016,10,12,09,30,7.00
2016,10,12,09,31,7.10
2016,10,12,09,32,7.20
2016,10,12,09,33,7.30
2016,10,12,09,34,7.30
2016,10,12,09,35,7.40
2016,10,12,09,36,7.50
2016,10,12,09,37,7.50
2016,10,12,09,38,7.60
2016,10,12,09,39,7.60
2016,10,12,09,40,7.70
2016,10,12,09,41,7.70
2016,10,12,09,42,7.70
2016,10,12,09,43,7.80
2016,10,12,09,44,7.80
2016,10,12,09,45,7.80
2016,10,12,09,46,7.80
2016,10,12,09,47,7.90
2016,10,12,09,48,7.90
2016,10,12,09,49,8.00
2016,10,12,09,50,8.00
2016,10,12,09,51,8.10
2016,10,12,09,52,8.20
2016,10,12,09,53,8.20
2016,10,12,09,54,8.20
2016,10,12,09,55,8.10
2016,10,12,09,56,8.00
2016,10,12,09,57,7.90
2016,10,12,09,58,7.80
2016,10,12,09,59,7.80
2016,10,12,10,00,7.80
2016,10,12,10,01,7.70
2016,10,12,10,02,7.70
2016,10,12,10,03,7.70
2016,10,12,10,04,7.70
2016,10,12,10,05,7.80
2016,10,12,10,06,7.80
2016,10,12,10,07,7.70
2016,10,12,10,08,7.70
2016,10,12,10,09,7.70
2016,10,12,10,10,7.70
2016,10,12,10,11,7.80
2016,10,12,10,12,7.80
2016,10,12,10,13,7.80
2016,10,12,10,14,7.90
2016,10,12,10,15,7.90
2016,10,12,10,16,8.00
2016,10,12,10,17,8.00
2016,10,12,10,18,8.10
2016,10,12,10,19,8.10
2016,10,12,10,20,8.20
2016,10,12,10,21,8.30
2016,10,12,10,22,8.30
2016,10,12,10,23,8.40
2016,10,12,10,24,8.50
2016,10,12,10,25,8.60
2016,10,12,10,26,8.70
2016,10,12,10,27,8.80
2016,10,12,10,28,8.90
2016,10,12,10,29,9.00
2016,10,12,10,30,9.10
2016,10,12,10,31,9.20
2016,10,12,10,32,9.20
2016,10,12,10,33,9.30
2016,10,12,10,34,9.30
2016,10,12,10,35,9.40
2016,10,12,10,36,9.40
2016,10,12,10,37,9.40
2016,10,12,10,38,9.40
2016,10,12,10,39,9.40
2016,10,12,10,40,9.40
2016,10,12,10,41,9.40
2016,10,12,10,42,9.40
2016,10,12,10,43,9.40
2016,10,12,10,44,9.50
2016,10,12,10,45,9.50
2016,10,12,10,46,9.50
2016,10,12,10,47,9.50
2016,10,12,10,48,9.60
2016,10,12,10,49,9.60
2016,10,12,10,50,9.60
2016,10,12,10,51,9.60
2016,10,12,10,52,9.70
2016,10,12,10,53,9.70
2016,10,12,10,54,9.70
2016,10,12,10,55,9.70
2016,10,12,10,56,9.70
2016,10,12,10,57,9.70
2016,10,12,10,58,9.80
2016,10,12,10,59,9.80
2016,10,12,11,00,9.90
2016,10,12,11,01,9.90
2016,10,12,11,02,10.00
2016,10,12,11,03,10.10
2016,10,12,11,04,10.10
2016,10,12,11,05,10.20
2016,10,12,11,06,10.20
2016,10,12,11,07,10.20
2016,10,12,11,08,10.30
2016,10,12,11,09,10.30
2016,10,12,11,10,10.30
2016,10,12,11,11,10.40
2016,10,12,11,12,10.40
2016,10,12,11,13,10.40
2016,10,12,11,14,10.50
2016,10,12,11,15,10.50
2016,10,12,11,16,10.50
2016,10,12,11,17,10.60
2016,10,12,11,18,10.60
2016,10,12,11,19,10.60
2016,10,12,11,20,10.60
2016,10,12,11,21,10.60
2016,10,12,11,22,10.70
2016,10,12,11,23,10.70
2016,10,12,11,24,10.70
2016,10,12,11,25,10.70
2016,10,12,11,26,10.70
2016,10,12,11,27,10.70
2016,10,12,11,28,10.80
2016,10,12,11,29,10.80
2016,10,12,11,30,10.80
2016,10,12,11,31,10.80
2016,10,12,11,32,10.80
2016,10,12,11,33,10.90
2016,10,12,11,34,10.90
2016,10,12,11,35,10.90
2016,10,12,11,36,10.90
2016,10,12,11,37,11.00
2016,10,12,11,38,11.00
2016,10,12,11,39,10.90
2016,10,12,11,40,10.90
2016,10,12,11,41,10.90
2016,10,12,11,42,11.00
2016,10,12,11,43,11.00
2016,10,12,11,44,11.10
2016,10,12,11,45,11.10
2016,10,12,11,46,11.10
2016,10,12,11,47,11.20
2016,10,12,11,48,11.20
2016,10,12,11,49,11.30
2016,10,12,11,50,11.30
2016,10,12,11,51,11.30
2016,10,12,11,52,11.20
2016,10,12,11,53,11.20
2016,10,12,11,54,11.20
2016,10,12,11,55,11.20
2016,10,12,11,56,11.30
2016,10,12,11,57,11.30
2016,10,12,11,58,11.30
2016,10,12,11,59,11.30
2016,10,12,12,00,11.30
2016,10,12,12,01,11.30
2016,10,12,12,02,11.40
2016,10,12,12,03,11.40
2016,10,12,12,04,11.40
2016,10,12,12,05,11.30
2016,10,12,12,06,11.30
2016,10,12,12,07,11.30
2016,10,12,12,08,11.30
2016,10,12,12,09,11.30
2016,10,12,12,10,11.30
2016,10,12,12,11,11.30
2016,10,12,12,12,11.30
2016,10,12,12,13,11.30
2016,10,12,12,14,11.30
2016,10,12,12,15,11.30
2016,10,12,12,16,11.30
2016,10,12,12,17,11.30
2016,10,12,12,18,11.30
2016,10,12,12,19,11.20
2016,10,12,12,20,11.20
2016,10,12,12,21,11.20
2016,10,12,12,22,11.20
2016,10,12,12,23,11.20
2016,10,12,12,24,11.30
2016,10,12,12,25,11.30
2016,10,12,12,26,11.30
2016,10,12,12,27,11.30
2016,10,12,12,28,11.30
2016,10,12,12,29,11.30
2016,10,12,12,30,11.20
2016,10,12,12,31,11.20
2016,10,12,12,32,11.30
2016,10,12,12,33,11.30
2016,10,12,12,34,11.30
2016,10,12,12,35,11.30
2016,10,12,12,36,11.30
2016,10,12,12,37,11.40
2016,10,12,12,38,11.40
2016,10,12,12,39,11.40
2016,10,12,12,40,11.40
2016,10,12,12,41,11.40
2016,10,12,12,42,11.40
2016,10,12,12,43,11.40
2016,10,12,12,44,11.50
2016,10,12,12,45,11.50
2016,10,12,12,46,11.50
2016,10,12,12,47,11.60
2016,10,12,12,48,11.60
2016,10,12,12,49,11.60
2016,10,12,12,50,11.60
2016,10,12,12,51,11.60
2016,10,12,12,52,11.60
2016,10,12,12,53,11.60
2016,10,12,12,54,11.60
2016,10,12,12,55,11.60
2016,10,12,12,56,11.60
2016,10,12,12,57,11.60
2016,10,12,12,58,11.60
2016,10,12,12,59,11.50
2016,10,12,13,00,11.50
2016,10,12,13,01,11.50
2016,10,12,13,02,11.50
2016,10,12,13,03,11.50
2016,10,12,13,04,11.60
2016,10,12,13,05,11.60
2016,10,12,13,06,11.70
2016,10,12,13,07,11.80
2016,10,12,13,08,11.90
2016,10,12,13,09,12.00
2016,10,12,13,10,12.10
2016,10,12,13,11,12.20
2016,10,12,13,12,12.20
2016,10,12,13,13,12.30
2016,10,12,13,14,12.40
2016,10,12,13,15,12.40
2016,10,12,13,16,12.50
2016,10,12,13,17,12.60
2016,10,12,13,18,12.60
2016,10,12,13,19,12.60
2016,10,12,13,20,12.60
2016,10,12,13,21,12.50
2016,10,12,13,22,12.40
2016,10,12,13,23,12.30
2016,10,12,13,24,12.30
2016,10,12,13,25,12.20
2016,10,12,13,26,12.20
2016,10,12,13,27,12.20
2016,10,12,13,28,12.30
2016,10,12,13,29,12.30
2016,10,12,13,30,12.30
2016,10,12,13,31,12.20
2016,10,12,13,32,12.20
2016,10,12,13,33,12.20
2016,10,12,13,34,12.20
2016,10,12,13,35,12.20
2016,10,12,13,36,12.20
2016,10,12,13,37,12.30
2016,10,12,13,38,12.30
2016,10,12,13,39,12.40
2016,10,12,13,40,12.40
2016,10,12,13,41,12.50
2016,10,12,13,42,12.50
2016,10,12,13,43,12.50
2016,10,12,13,44,12.40
2016,10,12,13,45,12.40
2016,10,12,13,46,12.40
2016,10,12,13,47,12.40
2016,10,12,13,48,12.40
2016,10,12,13,49,12.50
2016,10,12,13,50,12.60
2016,10,12,13,51,12.60
2016,10,12,13,52,12.70
2016,10,12,13,53,12.70
2016,10,12,13,54,12.70
2016,10,12,13,55,12.70
2016,10,12,13,56,12.70
2016,10,12,13,57,12.70
2016,10,12,13,58,12.60
2016,10,12,13,59,12.60
2016,10,12,14,00,12.60
2016,10,12,14,01,12.60
2016,10,12,14,02,12.60
2016,10,12,14,03,12.60
2016,10,12,14,04,12.60
2016,10,12,14,05,12.60
2016,10,12,14,06,12.70
2016,10,12,14,07,12.70
2016,10,12,14,08,12.70
2016,10,12,14,09,12.70
2016,10,12,14,10,12.70
2016,10,12,14,11,12.70
2016,10,12,14,12,12.70
2016,10,12,14,13,12.70
2016,10,12,14,14,12.70
2016,10,12,14,15,12.70
2016,10,12,14,16,12.80
2016,10,12,14,17,12.80
2016,10,12,14,18,12.80
2016,10,12,14,19,12.80
2016,10,12,14,20,12.80
2016,10,12,14,21,12.90
2016,10,12,14,22,12.90
2016,10,12,14,23,13.00
2016,10,12,14,24,13.00
2016,10,12,14,25,13.10
2016,10,12,14,26,13.10
2016,10,12,14,27,13.10
2016,10,12,14,28,13.10
2016,10,12,14,29,13.10
2016,10,12,14,30,13.00
2016,10,12,14,31,13.00
2016,10,12,14,32,13.00
2016,10,12,14,33,12.90
2016,10,12,14,34,12.90
2016,10,12,14,35,12.90
2016,10,12,14,36,12.90
2016,10,12,14,37,12.90
2016,10,12,14,38,12.90
2016,10,12,14,39,12.90
2016,10,12,14,40,12.90
2016,10,12,14,41,12.90
2016,10,12,14,42,12.90
2016,10,12,14,43,12.90
2016,10,12,14,44,12.90
2016,10,12,14,45,12.90
2016,10,12,14,46,12.80
2016,10,12,14,47,12.80
2016,10,12,14,48,12.80
2016,10,12,14,49,12.80
2016,10,12,14,50,12.80
2016,10,12,14,51,12.80
2016,10,12,14,52,12.80
2016,10,12,14,53,12.80
2016,10,12,14,54,12.80
2016,10,12,14,55,12.80
2016,10,12,14,56,12.80
2016,10,12,14,57,12.80
2016,10,12,14,58,12.80
2016,10,12,14,59,12.80
2016,10,12,15,00,12.80
2016,10,12,15,01,12.80
2016,10,12,15,02,12.90
2016,10,12,15,03,12.90
2016,10,12,15,04,12.90
2016,10,12,15,05,12.90
2016,10,12,15,06,12.90
2016,10,12,15,07,12.90
2016,10,12,15,08,12.90
2016,10,12,15,09,12.90
2016,10,12,15,10,12.90
2016,10,12,15,11,12.90
2016,10,12,15,12,12.90
2016,10,12,15,13,12.90
2016,10,12,15,14,12.90
2016,10,12,15,15,12.90
2016,10,12,15,16,12.90
2016,10,12,15,17,12.90
2016,10,12,15,18,12.90
2016,10,12,15,19,12.90
2016,10,12,15,20,12.80
2016,10,12,15,21,12.80
2016,10,12,15,22,12.80
2016,10,12,15,23,12.80
2016,10,12,15,24,12.80
2016,10,12,15,25,12.70
2016,10,12,15,26,12.70
2016,10,12,15,27,12.70
2016,10,12,15,28,12.70
2016,10,12,15,29,12.70
2016,10,12,15,30,12.60
2016,10,12,15,31,12.60
2016,10,12,15,32,12.60
2016,10,12,15,33,12.60
2016,10,12,15,34,12.60
2016,10,12,15,35,12.60
2016,10,12,15,36,12.60
2016,10,12,15,37,12.60
2016,10,12,15,38,12.50
2016,10,12,15,39,12.50
2016,10,12,15,40,12.50
2016,10,12,15,41,12.50
2016,10,12,15,42,12.40
2016,10,12,15,43,12.40
2016,10,12,15,44,12.40
2016,10,12,15,45,12.40
2016,10,12,15,46,12.40
2016,10,12,15,47,12.50
2016,10,12,15,48,12.50
2016,10,12,15,49,12.40
2016,10,12,15,50,12.40
2016,10,12,15,51,12.40
2016,10,12,15,52,12.40
2016,10,12,15,53,12.40
2016,10,12,15,54,12.40
2016,10,12,15,55,12.40
2016,10,12,15,56,12.40
2016,10,12,15,57,12.40
2016,10,12,15,58,12.40
2016,10,12,15,59,12.40
2016,10,12,16,00,12.40
2016,10,12,16,01,12.40
2016,10,12,16,02,12.40
2016,10,12,16,03,12.40
2016,10,12,16,04,12.40
2016,10,12,16,05,12.40
2016,10,12,16,06,12.40
2016,10,12,16,07,12.40
2016,10,12,16,08,12.40
2016,10,12,16,09,12.40
2016,10,12,16,10,12.40
2016,10,12,16,11,12.40
2016,10,12,16,12,12.40
2016,10,12,16,13,12.40
2016,10,12,16,14,12.40
2016,10,12,16,15,12.40
2016,10,12,16,16,12.50
2016,10,12,16,17,12.50
2016,10,12,16,18,12.50
2016,10,12,16,19,12.50
2016,10,12,16,20,12.50
2016,10,12,16,21,12.50
2016,10,12,16,22,12.40
2016,10,12,16,23,12.40
2016,10,12,16,24,12.40
2016,10,12,16,25,12.40
2016,10,12,16,26,12.40
2016,10,12,16,27,12.40
2016,10,12,16,28,12.40
2016,10,12,16,29,12.40
2016,10,12,16,30,12.50
2016,10,12,16,31,12.40
2016,10,12,16,32,12.40
2016,10,12,16,33,12.40
2016,10,12,16,34,12.40
2016,10,12,16,35,12.40
2016,10,12,16,36,12.40
2016,10,12,16,37,12.40
2016,10,12,16,38,12.40
2016,10,12,16,39,12.40
2016,10,12,16,40,12.40
2016,10,12,16,41,12.30
2016,10,12,16,42,12.30
2016,10,12,16,43,12.30
2016,10,12,16,44,12.30
2016,10,12,16,45,12.30
2016,10,12,16,46,12.30
2016,10,12,16,47,12.30
2016,10,12,16,48,12.30
2016,10,12,16,49,12.30
2016,10,12,16,50,12.30
2016,10,12,16,51,12.30
2016,10,12,16,52,12.30
2016,10,12,16,53,12.20
2016,10,12,16,54,12.30
2016,10,12,16,55,12.30
2016,10,12,16,56,12.20
2016,10,12,16,57,12.20
2016,10,12,16,58,12.20
2016,10,12,16,59,12.20
2016,10,12,17,00,12.20
2016,10,12,17,01,12.20
2016,10,12,17,02,12.20
2016,10,12,17,03,12.20
2016,10,12,17,04,12.20
2016,10,12,17,05,12.20
2016,10,12,17,06,12.20
2016,10,12,17,07,12.10
2016,10,12,17,08,12.10
2016,10,12,17,09,12.10
2016,10,12,17,10,12.10
2016,10,12,17,11,12.10
2016,10,12,17,12,12.10
2016,10,12,17,13,12.00
2016,10,12,17,14,12.00
2016,10,12,17,15,12.00
2016,10,12,17,16,11.90
2016,10,12,17,17,11.90
2016,10,12,17,18,11.90
2016,10,12,17,19,11.90
2016,10,12,17,20,11.90
2016,10,12,17,21,11.90
2016,10,12,17,22,11.90
2016,10,12,17,23,11.90
2016,10,12,17,24,11.90
2016,10,12,17,25,11.80
2016,10,12,17,26,11.80
2016,10,12,17,27,11.80
2016,10,12,17,28,11.80
2016,10,12,17,29,11.80
2016,10,12,17,30,11.80
2016,10,12,17,31,11.80
2016,10,12,17,32,11.80
2016,10,12,17,33,11.90
2016,10,12,17,34,11.80
2016,10,12,17,35,11.90
2016,10,12,17,36,11.90
2016,10,12,17,37,11.90
2016,10,12,17,38,11.90
2016,10,12,17,39,11.90
2016,10,12,17,40,11.90
2016,10,12,17,41,11.90
2016,10,12,17,42,11.90
2016,10,12,17,43,11.90
2016,10,12,17,44,11.90
2016,10,12,17,45,11.90
2016,10,12,17,46,11.90
2016,10,12,17,47,11.80
2016,10,12,17,48,11.90